DMSP 5D-2 F13 DEB, 40497

Orbit data source: Space-Track

DMSP 5D-2 F13 DEB, 40497 is space debris in SSO originally from a launch on Fri, 24 Mar 1995 UTC launched from the Air Force Western Test Range (AFWTR). Debris objects in space refer to the collection of defunct objects orbiting the Earth. Examples of debris include non-operational satellites, rocket bodies, and fragments generated from explosions, collisions, or faulty payload assembly.

Loading next visibility...
Identifier
40497, 1995-015CL
Orbit
SSO
Last TLE update
4 days ago
Origin
Manufacturer
Unknown
Mission
Spacecraft
Bus & Motor
Unknown
Mass
Unknown
Launch date (UTC)
1995-03-24 (30 years ago)
Launch vehicle
Unknown
Launch site
Air Force Western Test Range (AFWTR)
Object type
Payload
Rocket body
Debris
Shape & HBR
Unknown
Radar Cross Section
Small (<0.1 m²)

Expand to show TLE details & history

TLE from 4 days ago
0 DMSP 5D-2 F13 DEB
1 40497U 95015CL  25196.30342428  .00003524  00000-0  11741-2 0  9993
2 40497  98.6926 228.1888 0001592 274.3851  85.7153 14.38234349536903
Epoch: 2025-07-15T07:16Z
TLE epoch observation values (Epoch: 2025-07-15T07:16:55.857Z)
Latitude
-0.00011°
Longitude
-174.4438°
Altitude
767.193 km
Speed
7.471 km/s
True Right ascension
15h 12m 45s
True Declination
0° 00' 00"
Sunlit
Object was in daylight at epoch
Visualization orbit readout
Latitude
-23.17061°
Longitude
5.52429°
Altitude
772.374 km
Speed
7.467 km/s
Apparent Right ascension
01h 47m 17s
Apparent Declination
-33° 26' 31"
Sunlit
Object is in daylight
Visualization observer readout
Local Sidereal Time
11:50:19
Azimuth
276.235° WNW
Elevation
-65.794°
Doppler factor
1
Orbital elements
Apogee altitude
762.608 km
Perigee altitude
760.335 km
Semi-major axis
7,139.609 km
Eccentricity
0.00016
Inclination
98.6926°
RAAN
228.1888°
Arg. of periapsis
274.3851°
True anomaly
85.73349°
Mean anomaly
85.7153°
Eccentric anomaly
85.7244°
Mean motion
3.59775 °/min
Orbital period
100.06 mins
BSTAR
0.0011741
Loading maneuver chart data...
Loading SW <> Apogee altitude chart data...
|